Regional Weather Roundup
Issued by NWS

Home | Current Version | Previous Version | Text Only | Print | Product List | Glossary On
Versions: 1 2 3 4 5 6 7 8 9 10 11 12 13 14 15 16 17 18 19 20 21 22 23 24 25 26 27 28 29 30 31 32 33 34 35 36 37 38 39 40 41 42 43 44 45 46 47 48 49 50
000
ASUS44 KBMX 201110
RWRAL

ALABAMA REGIONAL WEATHER ROUNDUP
NATIONAL WEATHER SERVICE BIRMINGHAM AL
600 AM CDT WED AUG 20 2014

NOTE: "FAIR" INDICATES FEW OR NO CLOUDS BELOW 12,000 FEET
WITH NO SIGNIFICANT WEATHER AND/OR OBSTRUCTIONS TO VISIBILITY.

THE REMARK "TC" DENOTES TEMPERATURE IN DEGREES CELSIUS.

ALZ001>011-014-016>018-020-201200-
NORTH ALABAMA

CITY           SKY/WX    TMP DP  RH WIND       PRES   REMARKS
MUSCLE SHOALS  CLEAR     75  72  90 W5        29.99R
HUNTSVILLE     PTCLDY    74  72  93 S3        30.00R
DECATUR        CLEAR     75  73  93 SW5       30.00R
HALEYVILLE     FAIR      72  72 100 CALM      30.04R
GADSDEN        PTCLDY    70  64  83 CALM      30.01R
$$

ALZ012-013-022-023-030>036-040>044-201200-
WEST CENTRAL ALABAMA

CITY           SKY/WX    TMP DP  RH WIND       PRES   REMARKS
TUSCALOOSA     CLEAR     72  70  93 CALM      30.01R
$$

ALZ015-024>027-033>036-040>044-201200-
CENTRAL ALABAMA

CITY           SKY/WX    TMP DP  RH WIND       PRES   REMARKS
BIRMINGHAM     PTCLDY    73  69  87 S3        30.04R
MONTGOMERY     CLEAR     72  69  90 CALM      30.02R
SHELBY CO ARPT PTCLDY    72  69  90 CALM      30.02R
MAXWELL AFB    PTCLDY    71  71 100 VRB2      30.02R
GREENVILLE     FAIR      70  68  93 CALM      30.03R
$$

ALZ019-021-028-029-037-038-045>048-201200-
EAST CENTRAL ALABAMA

CITY           SKY/WX    TMP DP  RH WIND       PRES   REMARKS
ANNISTON       PTCLDY    71  69  93 W3        30.02R
ALEXANDER CITY PTCLDY    72  67  86 CALM      30.03R
AUBURN         PTCLDY    70  64  83 CALM      30.06R
$$

ALZ051>064-201200-
SOUTHWEST ALABAMA

CITY           SKY/WX    TMP DP  RH WIND       PRES   REMARKS
MOBILE         MOCLDY    75  74  96 CALM      30.03R
BROOKLEY FIELD PTCLDY    76  74  93 W3        30.04R
EVERGREEN      CLEAR     72  70  93 CALM      30.04R
$$

ALZ049-050-065>069-201200-
SOUTHEAST ALABAMA

CITY           SKY/WX    TMP DP  RH WIND       PRES   REMARKS
DOTHAN         MOCLDY    74  69  85 W5        30.07R
OZARK          MOCLDY    72  70  95 W2        30.03R
TROY           CLEAR     70  68  93 CALM      30.04R
EUFAULA        FAIR      69  67  93 CALM      30.02R
$$



USA.gov is the U.S. government's official web portal to all federal, state and local government web resources and services.